EUTELSAT 172B

Last updated on Jan. 20, 2021, 6:22 a.m. UTC

1 42741U 17029B   21019.58125444 -.00000001  00000-0  00000+0 0  9994
2 42741   0.0024  80.7279 0000105 136.3671 283.3126  1.00272062 13900
UTC
Height (km)
Latitude
Longitude
Inclination
Orbital Period
UTC large
Height (km)
Speed (km/s)
/
Latitude / Longitude
Inclination (degrees)
Orbital Period (minutes)
Azimuth
Elevation
Range (km)
Doppler Factor
iOS Compass Heading
iOS Angle

Next 30 passes for location: Hong Kong

Rise time Rise Azimuth (degrees) Set time Set Azimuth (degrees) Duration Max altitude (degrees)

No matching passes for this satellites